STARLINK-4602, 53629

Orbit data source: Space-Track

STARLINK-4602, 53629 is a payload satellite owned by SpaceX/Seattle (US) in LEO that was launched on Sun, 28 Aug 2022 UTC via an FALCON 9 launch vehicle from the Air Force Eastern Test Range (AFETR). Payload-class satellites include a variety of spacecraft equipped with specific instruments for various scientific and technological missions. These include communications satellites like Starlink; space stations such as the ISS; scientific satellites like the Hubble; Earth observation satellites from companies like Planet Labs, Umbra, and HawkEye 360; GPS; miniature CubeSats for education and research; and military/defense satellites.

Loading next visibility...
Identifier
53629, 2022-104AT
Orbit
LEO
Country
Flag of USUS
Related business
Manufacturer
SpaceX/Seattle
Mission
Operational Commercial Communications
Bus & Motor
STARLINK, Unknown motor
Mass
300 kg wet, ~290 kg dry
Launch date (UTC)
2022-08-28 (3 years ago)
Launch vehicle
FALCON 9
Launch site
Air Force Eastern Test Range (AFETR)
Object type
Payload
Rocket body
Debris
Shape & HBR
Box + 1 Pan, 10.1 m
Radar Cross Section
13.562 m², Large (>1 m²)

Expand to show TLE details & history
Last TLE update: 16 hours ago

TLE from 16 hours ago
0 STARLINK-4602
1 53629U 22104AT  25347.93605509  .00000901  00000-0  74687-4 0  9998
2 53629  53.2181 258.7650 0001351  89.3716 270.7431 15.08839841182815
Epoch: 2025-12-13T22:27Z
TLE epoch observation values (Epoch: 2025-12-13T22:27:55.159Z)
Latitude
-0.00003°
Longitude
-161.07103°
Altitude
540.629 km
Speed
7.593 km/s
True Right ascension
17h 15m 03s
True Declination
0° 00' 00"
Sunlit
Object was in daylight at epoch
Visualization orbit readout
Latitude
Unknown
Longitude
Unknown
Altitude
Unknown
Speed
Unknown
Apparent Right ascension
Unknown
Apparent Declination
Unknown
Sunlit
N/A
Visualization observer readout
Local Sidereal Time
13:01:02
Azimuth
Unknown
Elevation
Unknown
Doppler factor
Unknown
Orbital elements
Apogee altitude
540.923 km
Perigee altitude
539.054 km
Semi-major axis
6,918.126 km
Eccentricity
0.00014
Inclination
53.2181°
RAAN
258.765°
Arg. of periapsis
89.3716°
True anomaly
270.72762°
Mean anomaly
270.7431°
Eccentric anomaly
270.73536°
Mean motion
3.7719 °/min
Orbital period
95.44 mins
BSTAR
0.000074687
Loading maneuver chart data...
Computing Atmospheric mass density...
Loading historical data...
Loading historical data...
Loading historical data...
Loading historical data...
Loading historical data...
Loading historical data...
Loading historical data...

Documentation

Showing up to 5 results
|